{"data":{"norad_id":64465,"intl_designator":"2025-130AD","name":"STARLINK-34449","alt_names":[],"object_type":"PAYLOAD","status":"ACTIVE","operator":null,"country":"US","launch_date":"2025-06-18","launch_site_code":"AFETR","launch_vehicle":null,"mission":null,"orbit_class":"UNKNOWN","rcs_meters":null,"size_class":null,"mass_kg":null,"dimensions":null,"purposes":["comms"],"wikipedia_slug":null,"has_3d_model":false,"image_url":null,"decayed_at":null,"tle_current":{"epoch":"2026-09-20T22:53:48.424416Z","epoch_age_seconds":91968,"freshness":"FRESH","line1":"1 64465U 25130AD  26263.95403269  .00001250  00000+0  48137-4 0  9997","line2":"2 64465  53.1570 257.6640 0001611  86.9983 273.1204 15.34396669 70659","mean_motion":15.34396669,"eccentricity":0.0001611,"inclination_deg":53.157,"raan_deg":257.664,"arg_perigee_deg":86.9983,"mean_anomaly_deg":273.1204,"bstar":4.8137e-5,"rev_number":7065,"period_min":93.847961814104,"perigee_km":461.61107970133,"apogee_km":463.81520161665,"semimajor_km":6840.850140659,"source":"CELESTRAK","updated_at":"2026-09-21T09:00:35.357789Z"}}}